Regional Weather Roundup
Issued by NWS Green Bay, WI

Home | Current Version | Previous Version | Graphics & Text | Print | Product List | Glossary Off
Versions: 1 2 3 4 5 6 7 8 9 10 11 12 13 14 15 16 17 18 19 20 21 22 23 24 25 26 27 28 29 30 31 32 33 34 35 36 37 38 39 40 41 42 43 44 45 46 47 48 49 50

000
ASUS43 KGRB 010059
RWRGRB

NORTH-CENTRAL AND NORTHEAST WISCONSIN REGIONAL WEATHER ROUNDUP
NATIONAL WEATHER SERVICE GREEN BAY WI
700 PM CST SAT JAN 31 2015

WIZ005-009-010>012-018-019-010200-
NORTH CENTRAL WISCONSIN

CITY           SKY/WX    TMP DP  RH WIND       PRES   REMARKS
IRONWOOD       CLOUDY    14   7  73 NE7       30.27R WCI   4
MANITOWISH WTR NOT AVBL
ARBOR VITAE    NOT AVBL
EAGLE RIVER    NOT AVBL
LAND O LAKES   NOT AVBL
RHINELANDER    PTCLDY    15   7  70 NE7       30.22R WCI   5
PHILLIPS       NOT AVBL
ANTIGO         NOT AVBL
TOMAHAWK       NOT AVBL
MERRILL        NOT AVBL
$$

WIZ013-073-010200-
NORTHEAST WISCONSIN

CITY           SKY/WX    TMP DP  RH WIND       PRES   REMARKS
IRON MOUNTAIN  MOCLDY    11   4  73 N8        30.25R WCI  -1
MARINETTE      CLOUDY    21  12  68 NE14      30.26R WCI   8
$$

WIZ017-030-035>037-045-010200-
CENTRAL WISCONSIN

CITY           SKY/WX    TMP DP  RH WIND       PRES   REMARKS
MEDFORD        NOT AVBL
WAUSAU         CLOUDY    24  15  68 NE6       30.18S
MOSINEE        CLOUDY    25  21  86 N6        30.19S
MARSHFIELD     CLOUDY    25  16  68 NE12      30.18S
WISC RAPIDS    CLOUDY    27  17  66 NE5       30.20S
STEVENS POINT  NOT AVBL
WAUPACA        NOT AVBL
SHAWANO        NOT AVBL
CLINTONVILLE   NOT AVBL
$$

WIZ038-039-048-051-010200-
FOX VALLEY

CITY           SKY/WX    TMP DP  RH WIND       PRES   REMARKS
NWS GREEN BAY  CLOUDY    27  20  75 NE6       30.23R
APPLETON       CLOUDY    27  18  69 VRB5      30.21R
OSHKOSH        CLOUDY    27  19  72 E5        30.21R
FOND DU LAC    CLOUDY    27  19  72 NE8       30.21R
$$

WIZ022-050-052-010200-
EAST CENTRAL WISCONSIN

CITY           SKY/WX    TMP DP  RH WIND       PRES   REMARKS
STURGEON BAY   CLOUDY    21  12  68 N17       30.27R WCI   7
MANITOWOC      NOT AVBL
SHEBOYGAN      CLOUDY    27  19  72 NE9       30.22R
$$

LMZ563-521-522-541>543-010200-
LAKESHORE

STATION/POSITION TIME  TEMP    WIND        PRES    VSBY  WAVE
                       AIR SEA DIR/SP/G                  HT/PER
                 (UTC) (F)     (DEG/KT/KT) (MB)    (MI)  (FT/S)
SHEBOYGAN LKSHOR 0000   28      20/ 13/ 14 1024.1R
KEWAUNEE LKSHORE 0000   27      10/  3/  6 1022.5S
NORTHPORT PIER   0000   20     360/ 18/ 21 1025.4R
SISTER BAY LKSHO 0000   22      30/ 11/ 17   N/A
CHAMBERS ISLAND  0000   20      10/ 19/ 22 1025.1R
MENOMINEE LKSHOR 0000   22      30/ 21     1025.1R
$$



USA.gov is the U.S. government's official web portal to all federal, state and local government web resources and services.